Location: Audinghen
(50.8518°N, 1.6129°E)
Time: 23:58:22
(UTC+00:00)

ERS-2 - Pass Details

Date: 07 August 2020
Orbit: 493 x 498 km, 98.6° (Epoch: 23 September)

Event Time Altitude Azimuth Distance (km) Brightness Sun altitude
Rises 03:31:04 0° 168° (SSE) 2,568 5.5 -8.5°
Reaches altitude 10° 03:33:08 10° 170° (S) 1,691 4.5 -8.2°
Maximum altitude 03:36:45 74° 255° (WSW) 522 2.0 -7.8°
Drops below altitude 10° 03:40:26 10° 342° (NNW) 1,709 5.1 -7.3°
Sets 03:42:32 0° 344° (NNW) 2,598 6.1 -7.1°
